Time,TemperatureF,DewpointF,PressureIn,WindDirection,WindDirectionDegrees,WindSpeedMPH,WindSpeedGustMPH,Humidity,HourlyPrecipIn,Conditions,Clouds,dailyrainin,SoftwareType,DateUTC
2016-07-30 00:02:00,70.3,62.4,29.96,South,180,0.0,0.0,76,0.00,,---,0.00,VWS V15.00,2016-07-30 04:02:00,
2016-07-30 00:07:00,70.3,62.4,29.96,South,180,0.0,0.0,76,0.00,,---,0.00,VWS V15.00,2016-07-30 04:07:00,
2016-07-30 00:12:00,70.3,63.2,29.96,SSE,158,0.0,0.0,78,0.00,,---,0.00,VWS V15.00,2016-07-30 04:12:00,
2016-07-30 00:17:00,70.3,63.2,29.96,ENE,68,0.0,0.0,78,0.00,,---,0.00,VWS V15.00,2016-07-30 04:17:00,
2016-07-30 00:22:00,70.5,63.3,29.96,SSE,158,0.0,0.0,78,0.00,,---,0.00,VWS V15.00,2016-07-30 04:22:00,
2016-07-30 00:27:00,70.5,63.3,29.96,SSE,158,0.0,0.0,78,0.00,,---,0.00,VWS V15.00,2016-07-30 04:27:00,
2016-07-30 00:32:00,70.5,63.3,29.96,East,90,0.0,0.0,78,0.00,,---,0.00,VWS V15.00,2016-07-30 04:32:00,
2016-07-30 00:37:00,70.5,63.3,29.96,East,90,0.0,0.0,78,0.00,,---,0.00,VWS V15.00,2016-07-30 04:37:00,
2016-07-30 00:42:00,70.5,63.3,29.96,SSW,202,3.4,3.4,78,0.00,,---,0.00,VWS V15.00,2016-07-30 04:42:00,
2016-07-30 00:47:00,70.2,61.5,29.96,SSE,158,0.0,0.0,74,0.00,,---,0.00,VWS V15.00,2016-07-30 04:47:00,
2016-07-30 00:52:00,70.2,61.5,29.96,North,0,0.0,0.0,74,0.00,,---,0.00,VWS V15.00,2016-07-30 04:52:00,
2016-07-30 00:56:00,70.0,60.5,29.96,North,0,0.0,0.0,72,0.00,,---,0.00,VWS V15.00,2016-07-30 04:56:00,
2016-07-30 01:02:00,70.0,60.9,29.96,North,0,0.0,0.0,73,0.00,,---,0.00,VWS V15.00,2016-07-30 05:02:00,
2016-07-30 01:07:00,70.0,60.9,29.96,North,0,0.0,0.0,73,0.00,,---,0.00,VWS V15.00,2016-07-30 05:07:00,
2016-07-30 01:12:00,70.0,60.9,29.96,North,0,0.0,0.0,73,0.00,,---,0.00,VWS V15.00,2016-07-30 05:12:00,
2016-07-30 01:17:00,70.0,62.1,29.96,WNW,292,0.0,0.0,76,0.00,,---,0.00,VWS V15.00,2016-07-30 05:17:00,
2016-07-30 01:22:00,70.0,62.1,29.96,WNW,292,0.0,0.0,76,0.00,,---,0.00,VWS V15.00,2016-07-30 05:22:00,
2016-07-30 01:27:00,70.0,62.1,29.96,WNW,292,0.0,0.0,76,0.00,,---,0.00,VWS V15.00,2016-07-30 05:27:00,
2016-07-30 01:32:00,69.8,62.3,29.96,ENE,68,0.0,0.0,77,0.00,,---,0.00,VWS V15.00,2016-07-30 05:32:00,
2016-07-30 01:37:00,69.8,62.6,29.96,ENE,68,0.0,0.0,78,0.00,,---,0.00,VWS V15.00,2016-07-30 05:37:00,
2016-07-30 01:42:00,69.8,63.0,29.96,SE,135,0.0,0.0,79,0.00,,---,0.00,VWS V15.00,2016-07-30 05:42:00,
2016-07-30 01:47:00,69.8,63.0,29.96,SE,135,0.0,0.0,79,0.00,,---,0.00,VWS V15.00,2016-07-30 05:47:00,
2016-07-30 01:52:00,69.8,63.4,29.96,SE,135,0.0,0.0,80,0.00,,---,0.00,VWS V15.00,2016-07-30 05:52:00,
2016-07-30 01:57:00,69.8,63.4,29.96,SSW,202,0.0,0.0,80,0.00,,---,0.00,VWS V15.00,2016-07-30 05:57:00,
2016-07-30 02:02:00,69.8,63.4,29.96,SW,225,0.0,0.0,80,0.00,,---,0.00,VWS V15.00,2016-07-30 06:02:00,
2016-07-30 02:07:00,69.8,63.4,29.96,SW,225,0.0,0.0,80,0.00,,---,0.00,VWS V15.00,2016-07-30 06:07:00,
2016-07-30 02:12:00,69.6,62.8,29.96,SW,225,0.0,0.0,79,0.00,,---,0.00,VWS V15.00,2016-07-30 06:12:00,
2016-07-30 02:17:00,69.6,62.8,29.96,WSW,248,0.0,0.0,79,0.00,,---,0.00,VWS V15.00,2016-07-30 06:17:00,
2016-07-30 02:22:00,69.6,62.8,29.96,WSW,248,0.0,0.0,79,0.00,,---,0.00,VWS V15.00,2016-07-30 06:22:00,
2016-07-30 02:27:00,69.4,62.3,29.93,SSW,202,0.0,0.0,78,0.00,,---,0.00,VWS V15.00,2016-07-30 06:27:00,
2016-07-30 02:32:00,69.3,62.1,29.93,SSW,202,0.0,0.0,78,0.00,,---,0.00,VWS V15.00,2016-07-30 06:32:00,
2016-07-30 02:37:00,69.3,62.5,29.93,SSW,202,0.0,0.0,79,0.00,,---,0.00,VWS V15.00,2016-07-30 06:37:00,
2016-07-30 02:42:00,69.3,62.5,29.93,SSW,202,0.0,0.0,79,0.00,,---,0.00,VWS V15.00,2016-07-30 06:42:00,
2016-07-30 02:47:00,69.3,62.5,29.93,SSW,202,0.0,0.0,79,0.00,,---,0.00,VWS V15.00,2016-07-30 06:47:00,
2016-07-30 02:52:00,69.3,62.5,29.93,SSW,202,0.0,0.0,79,0.00,,---,0.00,VWS V15.00,2016-07-30 06:52:00,
2016-07-30 02:57:00,69.1,63.0,29.90,SSW,202,0.0,0.0,81,0.00,,---,0.00,VWS V15.00,2016-07-30 06:57:00,
2016-07-30 03:02:00,69.1,63.0,29.90,SSW,202,0.0,0.0,81,0.00,,---,0.00,VWS V15.00,2016-07-30 07:02:00,
2016-07-30 03:07:00,69.1,63.0,29.90,SSW,202,0.0,0.0,81,0.00,,---,0.00,VWS V15.00,2016-07-30 07:07:00,
2016-07-30 03:12:00,69.1,63.0,29.90,SSW,202,0.0,0.0,81,0.00,,---,0.00,VWS V15.00,2016-07-30 07:12:00,
2016-07-30 03:17:00,69.1,63.0,29.90,SSW,202,0.0,0.0,81,0.00,,---,0.00,VWS V15.00,2016-07-30 07:17:00,
2016-07-30 03:22:00,69.1,63.0,29.90,SSW,202,0.0,0.0,81,0.00,,---,0.00,VWS V15.00,2016-07-30 07:22:00,
2016-07-30 03:27:00,69.1,63.7,29.90,SSW,202,0.0,0.0,83,0.00,,---,0.00,VWS V15.00,2016-07-30 07:27:00,
2016-07-30 03:32:00,69.3,63.9,29.93,SSW,202,0.0,0.0,83,0.00,,---,0.00,VWS V15.00,2016-07-30 07:32:00,
2016-07-30 03:36:00,69.3,63.9,29.93,SSW,202,0.0,0.0,83,0.00,,---,0.00,VWS V15.00,2016-07-30 07:36:00,
2016-07-30 03:41:00,69.3,63.9,29.93,SSW,202,0.0,0.0,83,0.00,,---,0.00,VWS V15.00,2016-07-30 07:41:00,
2016-07-30 03:46:00,69.3,63.9,29.93,SSW,202,0.0,0.0,83,0.00,,---,0.00,VWS V15.00,2016-07-30 07:46:00,
2016-07-30 03:51:00,69.3,63.9,29.93,SW,225,0.0,0.0,83,0.00,,---,0.00,VWS V15.00,2016-07-30 07:51:00,
2016-07-30 03:56:00,69.3,63.9,29.93,SW,225,0.0,0.0,83,0.00,,---,0.00,VWS V15.00,2016-07-30 07:56:00,
2016-07-30 04:01:00,69.4,64.1,29.90,SSW,202,0.0,0.0,83,0.00,,---,0.00,VWS V15.00,2016-07-30 08:01:00,
2016-07-30 04:06:00,69.4,64.1,29.90,SSW,202,0.0,0.0,83,0.00,,---,0.00,VWS V15.00,2016-07-30 08:06:00,
2016-07-30 04:11:00,69.4,64.4,29.93,SSW,202,0.0,0.0,84,0.00,,---,0.00,VWS V15.00,2016-07-30 08:11:00,
2016-07-30 04:16:00,69.4,64.4,29.93,SSW,202,0.0,0.0,84,0.00,,---,0.00,VWS V15.00,2016-07-30 08:16:00,
2016-07-30 04:21:00,69.4,64.4,29.93,SSW,202,0.0,0.0,84,0.00,,---,0.00,VWS V15.00,2016-07-30 08:21:00,
2016-07-30 04:26:00,69.4,64.4,29.90,SSW,202,0.0,0.0,84,0.00,,---,0.00,VWS V15.00,2016-07-30 08:26:00,
2016-07-30 04:31:00,69.4,64.1,29.90,SSW,202,0.0,0.0,83,0.00,,---,0.00,VWS V15.00,2016-07-30 08:31:00,
2016-07-30 04:36:00,69.4,64.1,29.90,SSW,202,0.0,0.0,83,0.00,,---,0.00,VWS V15.00,2016-07-30 08:36:00,
2016-07-30 04:41:00,69.4,64.1,29.90,SSW,202,0.0,0.0,83,0.00,,---,0.00,VWS V15.00,2016-07-30 08:41:00,
2016-07-30 04:46:00,69.4,64.1,29.90,SSW,202,0.0,0.0,83,0.00,,---,0.00,VWS V15.00,2016-07-30 08:46:00,
2016-07-30 04:51:00,69.4,64.1,29.90,SSW,202,0.0,0.0,83,0.00,,---,0.00,VWS V15.00,2016-07-30 08:51:00,
2016-07-30 04:56:00,69.4,64.4,29.90,SSW,202,0.0,0.0,84,0.00,,---,0.00,VWS V15.00,2016-07-30 08:56:00,
2016-07-30 05:01:00,69.4,64.4,29.90,WSW,248,0.0,0.0,84,0.00,,---,0.00,VWS V15.00,2016-07-30 09:01:00,
2016-07-30 05:06:00,69.4,64.1,29.90,SW,225,0.0,0.0,83,0.00,,---,0.00,VWS V15.00,2016-07-30 09:06:00,
2016-07-30 05:11:00,69.4,64.1,29.90,SW,225,0.0,0.0,83,0.00,,---,0.00,VWS V15.00,2016-07-30 09:11:00,
2016-07-30 05:16:00,69.4,64.4,29.93,WSW,248,0.0,0.0,84,0.00,,---,0.00,VWS V15.00,2016-07-30 09:16:00,
2016-07-30 05:21:00,69.4,64.4,29.93,SSW,202,0.0,0.0,84,0.00,,---,0.00,VWS V15.00,2016-07-30 09:21:00,
2016-07-30 05:26:00,69.4,64.4,29.93,SSW,202,0.0,0.0,84,0.00,,---,0.00,VWS V15.00,2016-07-30 09:26:00,
2016-07-30 05:31:00,69.4,64.4,29.93,SSW,202,0.0,0.0,84,0.00,,---,0.00,VWS V15.00,2016-07-30 09:31:00,
2016-07-30 05:36:00,69.3,64.2,29.93,SSW,202,0.0,0.0,84,0.00,,---,0.00,VWS V15.00,2016-07-30 09:36:00,
2016-07-30 05:41:00,69.3,64.2,29.93,WSW,248,0.0,0.0,84,0.00,,---,0.00,VWS V15.00,2016-07-30 09:41:00,
2016-07-30 05:46:00,69.3,64.2,29.93,WSW,248,0.0,0.0,84,0.00,,---,0.00,VWS V15.00,2016-07-30 09:46:00,
2016-07-30 05:51:00,69.3,64.2,29.93,West,270,0.0,0.0,84,0.00,,---,0.00,VWS V15.00,2016-07-30 09:51:00,
2016-07-30 05:56:00,69.3,64.2,29.93,West,270,0.0,0.0,84,0.00,,---,0.00,VWS V15.00,2016-07-30 09:56:00,
2016-07-30 06:01:00,69.3,64.2,29.93,West,270,0.0,0.0,84,0.00,,---,0.00,VWS V15.00,2016-07-30 10:01:00,
2016-07-30 06:06:00,69.3,64.2,29.93,SW,225,0.0,0.0,84,0.00,,---,0.00,VWS V15.00,2016-07-30 10:06:00,
2016-07-30 06:11:00,69.3,64.2,29.93,SSW,202,0.0,0.0,84,0.00,,---,0.00,VWS V15.00,2016-07-30 10:11:00,
2016-07-30 06:16:00,69.3,64.2,29.93,SSW,202,0.0,0.0,84,0.00,,---,0.00,VWS V15.00,2016-07-30 10:16:00,
2016-07-30 06:21:00,69.3,64.6,29.96,SW,225,0.0,0.0,85,0.00,,---,0.00,VWS V15.00,2016-07-30 10:21:00,
2016-07-30 06:26:00,69.3,64.6,29.96,SW,225,0.0,0.0,85,0.00,,---,0.00,VWS V15.00,2016-07-30 10:26:00,
2016-07-30 06:31:00,69.3,64.6,29.96,SSW,202,0.0,0.0,85,0.00,,---,0.00,VWS V15.00,2016-07-30 10:31:00,
2016-07-30 06:36:00,69.3,64.6,29.96,SSW,202,0.0,0.0,85,0.00,,---,0.00,VWS V15.00,2016-07-30 10:36:00,
2016-07-30 06:41:00,69.3,64.6,29.96,SSW,202,0.0,0.0,85,0.00,,---,0.00,VWS V15.00,2016-07-30 10:41:00,
2016-07-30 06:46:00,69.3,64.6,29.96,SSW,202,0.0,0.0,85,0.00,,---,0.00,VWS V15.00,2016-07-30 10:46:00,
2016-07-30 06:51:00,69.3,64.6,29.96,SSW,202,0.0,0.0,85,0.00,,---,0.00,VWS V15.00,2016-07-30 10:51:00,
2016-07-30 06:56:00,69.3,64.6,29.96,SSW,202,0.0,0.0,85,0.00,,---,0.00,VWS V15.00,2016-07-30 10:56:00,
2016-07-30 07:01:00,69.8,65.1,29.93,SW,225,0.0,0.0,85,0.00,,---,0.00,VWS V15.00,2016-07-30 11:01:00,
2016-07-30 07:06:00,69.8,65.1,29.93,SW,225,0.0,0.0,85,0.00,,---,0.00,VWS V15.00,2016-07-30 11:06:00,
2016-07-30 07:11:00,70.2,65.8,29.96,WSW,248,0.0,0.0,86,0.00,,---,0.00,VWS V15.00,2016-07-30 11:11:00,
2016-07-30 07:16:00,70.2,65.8,29.96,WSW,248,0.0,0.0,86,0.00,,---,0.00,VWS V15.00,2016-07-30 11:16:00,
2016-07-30 07:21:00,70.3,66.0,29.96,SSW,202,0.0,0.0,86,0.00,,---,0.00,VWS V15.00,2016-07-30 11:21:00,
2016-07-30 07:26:00,70.3,66.0,29.96,South,180,0.0,0.0,86,0.00,,---,0.00,VWS V15.00,2016-07-30 11:26:00,
2016-07-30 07:31:00,70.5,66.1,29.96,South,180,0.0,0.0,86,0.00,,---,0.00,VWS V15.00,2016-07-30 11:31:00,
2016-07-30 07:36:00,70.5,66.1,29.96,SSW,202,0.0,0.0,86,0.00,,---,0.00,VWS V15.00,2016-07-30 11:36:00,
2016-07-30 07:41:00,70.5,66.1,29.96,SSW,202,0.0,0.0,86,0.00,,---,99.99,VWS V15.00,2016-07-30 11:41:00,
2016-07-30 07:46:00,70.7,66.3,29.96,SSW,202,0.0,0.0,86,0.00,,---,99.99,VWS V15.00,2016-07-30 11:46:00,
2016-07-30 07:51:00,70.7,66.3,29.96,SSW,202,0.0,0.0,86,0.00,,---,99.99,VWS V15.00,2016-07-30 11:51:00,
2016-07-30 07:56:00,71.2,66.8,29.96,SSW,202,0.0,0.0,86,0.00,,---,99.99,VWS V15.00,2016-07-30 11:56:00,
2016-07-30 08:01:00,71.1,66.7,29.96,SSW,202,0.0,0.0,86,0.00,,---,99.99,VWS V15.00,2016-07-30 12:01:00,
2016-07-30 08:06:00,71.1,66.7,29.96,SSW,202,0.0,0.0,86,0.00,,---,99.99,VWS V15.00,2016-07-30 12:06:00,
2016-07-30 08:11:00,71.2,66.8,29.96,SSW,202,0.0,0.0,86,0.00,,---,99.99,VWS V15.00,2016-07-30 12:11:00,
2016-07-30 08:16:00,71.2,66.8,29.96,SSW,202,0.0,0.0,86,0.00,,---,99.99,VWS V15.00,2016-07-30 12:16:00,
2016-07-30 08:21:00,71.2,66.8,29.96,SSW,202,0.0,0.0,86,0.00,,---,99.99,VWS V15.00,2016-07-30 12:21:00,
2016-07-30 08:26:00,71.8,67.0,29.96,WSW,248,0.0,0.0,85,0.00,,---,99.99,VWS V15.00,2016-07-30 12:26:00,
2016-07-30 08:31:00,71.8,67.0,29.96,SSW,202,0.0,0.0,85,0.00,,---,99.99,VWS V15.00,2016-07-30 12:31:00,
2016-07-30 08:36:00,71.8,67.0,29.96,WSW,248,0.0,0.0,85,0.00,,---,99.99,VWS V15.00,2016-07-30 12:36:00,
2016-07-30 08:41:00,71.8,67.0,29.96,WSW,248,0.0,0.0,85,0.00,,---,99.99,VWS V15.00,2016-07-30 12:41:00,
2016-07-30 08:46:00,71.8,67.0,29.96,SSW,202,0.0,0.0,85,0.00,,---,99.99,VWS V15.00,2016-07-30 12:46:00,
2016-07-30 08:51:00,71.8,67.0,29.96,SSW,202,0.0,0.0,85,0.00,,---,99.99,VWS V15.00,2016-07-30 12:51:00,
2016-07-30 08:56:00,72.1,66.3,29.99,South,180,0.0,0.0,82,0.00,,---,99.99,VWS V15.00,2016-07-30 12:56:00,
2016-07-30 09:01:00,72.3,66.5,29.99,WSW,248,0.0,0.0,82,0.00,,---,99.99,VWS V15.00,2016-07-30 13:01:00,
2016-07-30 09:06:00,72.5,66.7,29.99,SW,225,0.0,0.0,82,0.00,,---,99.99,VWS V15.00,2016-07-30 13:06:00,
2016-07-30 09:11:00,72.7,66.9,29.96,SW,225,0.0,0.0,82,0.00,,---,99.99,VWS V15.00,2016-07-30 13:11:00,
2016-07-30 09:16:00,72.7,66.9,29.96,WSW,248,0.0,0.0,82,0.00,,---,99.99,VWS V15.00,2016-07-30 13:16:00,
2016-07-30 09:21:00,72.7,66.9,29.96,SW,225,0.0,0.0,82,0.00,,---,99.99,VWS V15.00,2016-07-30 13:21:00,
2016-07-30 09:26:00,73.2,66.3,29.99,SSW,202,0.0,0.0,79,0.00,,---,99.99,VWS V15.00,2016-07-30 13:26:00,
2016-07-30 09:31:00,73.2,66.3,29.99,WSW,248,0.0,0.0,79,0.00,,---,99.99,VWS V15.00,2016-07-30 13:31:00,
2016-07-30 09:36:00,73.2,66.3,29.99,South,180,0.0,0.0,79,0.00,,---,99.99,VWS V15.00,2016-07-30 13:36:00,
2016-07-30 09:41:00,73.2,66.3,29.99,SSW,202,0.0,0.0,79,0.00,,---,99.99,VWS V15.00,2016-07-30 13:41:00,
2016-07-30 09:46:00,74.1,64.1,29.99,SW,225,0.0,0.0,71,0.00,,---,99.99,VWS V15.00,2016-07-30 13:46:00,
2016-07-30 09:51:00,74.1,64.1,29.99,WSW,248,0.0,0.0,71,0.00,,---,99.99,VWS V15.00,2016-07-30 13:51:00,
2016-07-30 09:56:00,75.0,61.1,29.99,SW,225,0.0,0.0,62,0.00,,---,99.99,VWS V15.00,2016-07-30 13:56:00,
2016-07-30 10:01:00,75.7,62.3,29.99,West,270,0.0,0.0,63,0.00,,---,99.99,VWS V15.00,2016-07-30 14:01:00,
2016-07-30 10:06:00,75.9,62.9,29.99,WSW,248,0.0,0.0,64,0.00,,---,99.99,VWS V15.00,2016-07-30 14:06:00,
2016-07-30 10:11:00,77.7,58.2,29.99,SW,225,0.0,0.0,51,0.00,,---,99.99,VWS V15.00,2016-07-30 14:11:00,
2016-07-30 10:16:00,77.7,57.6,29.99,SSW,202,0.0,0.0,50,0.00,,---,99.99,VWS V15.00,2016-07-30 14:16:00,
2016-07-30 10:21:00,77.7,57.6,29.99,SE,135,0.0,0.0,50,0.00,,---,99.99,VWS V15.00,2016-07-30 14:21:00,
2016-07-30 10:26:00,80.8,52.1,29.99,West,270,0.0,0.0,37,0.00,,---,99.99,VWS V15.00,2016-07-30 14:26:00,
2016-07-30 10:31:00,80.8,52.1,29.99,South,180,0.0,0.0,37,0.00,,---,99.99,VWS V15.00,2016-07-30 14:31:00,
2016-07-30 10:36:00,79.5,47.1,29.99,SSW,202,0.0,0.0,32,0.00,,---,99.99,VWS V15.00,2016-07-30 14:36:00,
2016-07-30 10:41:00,79.5,47.1,29.99,WNW,292,0.0,0.0,32,0.00,,---,99.99,VWS V15.00,2016-07-30 14:41:00,
2016-07-30 10:46:00,78.8,45.6,29.99,WNW,292,0.0,1.6,31,0.00,,---,99.99,VWS V15.00,2016-07-30 14:46:00,
2016-07-30 10:51:00,78.8,45.6,29.99,NW,315,0.9,0.9,31,0.00,,---,99.99,VWS V15.00,2016-07-30 14:51:00,
2016-07-30 10:56:00,78.8,45.6,29.99,NNW,338,0.0,0.0,31,0.00,,---,99.99,VWS V15.00,2016-07-30 14:56:00,
2016-07-30 11:01:00,81.1,42.0,29.99,NE,45,1.6,1.6,25,0.00,,---,99.99,VWS V15.00,2016-07-30 15:01:00,
2016-07-30 11:06:00,81.1,42.0,29.99,SW,225,2.0,2.7,25,0.00,,---,99.99,VWS V15.00,2016-07-30 15:06:00,
2016-07-30 11:11:00,81.1,42.0,29.99,WSW,248,3.4,3.4,25,0.00,,---,99.99,VWS V15.00,2016-07-30 15:11:00,
2016-07-30 11:16:00,83.1,41.5,29.99,SSW,202,1.6,3.4,23,0.00,,---,99.99,VWS V15.00,2016-07-30 15:16:00,
2016-07-30 11:21:00,83.1,41.5,29.99,NW,315,0.0,0.0,23,0.00,,---,99.99,VWS V15.00,2016-07-30 15:21:00,
2016-07-30 11:26:00,86.2,41.7,29.99,NNW,338,0.0,0.0,21,0.00,,---,99.99,VWS V15.00,2016-07-30 15:26:00,
2016-07-30 11:31:00,85.3,41.0,29.99,SW,225,0.0,0.0,21,0.00,,---,99.99,VWS V15.00,2016-07-30 15:31:00,
2016-07-30 11:36:00,85.3,41.0,29.99,WSW,248,2.2,2.2,21,0.00,,---,99.99,VWS V15.00,2016-07-30 15:36:00,
2016-07-30 11:41:00,85.3,41.0,29.99,WSW,248,2.2,2.2,21,0.00,,---,99.99,VWS V15.00,2016-07-30 15:41:00,
2016-07-30 11:46:00,85.3,41.0,29.99,WSW,248,2.5,2.5,21,0.00,,---,99.99,VWS V15.00,2016-07-30 15:46:00,
2016-07-30 11:51:00,85.3,41.0,29.99,West,270,1.3,2.5,21,0.00,,---,99.99,VWS V15.00,2016-07-30 15:51:00,
2016-07-30 11:56:00,85.8,38.8,29.99,WSW,248,1.6,1.6,19,0.00,,---,99.99,VWS V15.00,2016-07-30 15:56:00,
2016-07-30 12:01:00,90.0,40.8,29.99,WNW,292,1.3,1.3,18,0.00,,---,99.99,VWS V15.00,2016-07-30 16:01:00,
2016-07-30 12:06:00,90.0,40.8,29.99,WNW,292,1.3,1.3,18,0.00,,---,99.99,VWS V15.00,2016-07-30 16:06:00,
2016-07-30 12:11:00,89.2,35.6,29.99,WSW,248,3.1,3.1,15,0.00,,---,99.99,VWS V15.00,2016-07-30 16:11:00,
2016-07-30 12:16:00,89.1,35.5,29.99,WSW,248,3.1,3.1,15,0.00,,---,99.99,VWS V15.00,2016-07-30 16:16:00,
2016-07-30 12:21:00,89.1,35.5,29.99,North,0,0.9,1.1,15,0.00,,---,99.99,VWS V15.00,2016-07-30 16:21:00,
2016-07-30 12:26:00,89.1,35.5,29.99,WNW,292,1.6,1.6,15,0.00,,---,99.99,VWS V15.00,2016-07-30 16:26:00,
2016-07-30 12:31:00,89.2,35.6,29.99,SW,225,2.9,2.9,15,0.00,,---,99.99,VWS V15.00,2016-07-30 16:31:00,
2016-07-30 12:36:00,89.2,35.6,29.99,SW,225,2.9,2.9,15,0.00,,---,99.99,VWS V15.00,2016-07-30 16:36:00,
2016-07-30 12:41:00,89.2,35.6,29.99,SW,225,2.9,2.9,15,0.00,,---,99.99,VWS V15.00,2016-07-30 16:41:00,
2016-07-30 12:46:00,92.7,32.7,29.99,NW,315,2.5,2.5,12,0.00,,---,99.99,VWS V15.00,2016-07-30 16:46:00,
2016-07-30 12:51:00,92.7,32.7,29.99,NW,315,2.5,2.5,12,0.00,,---,99.99,VWS V15.00,2016-07-30 16:51:00,
2016-07-30 12:56:00,88.2,31.2,29.99,SE,135,2.7,2.7,13,0.00,,---,99.99,VWS V15.00,2016-07-30 16:56:00,
2016-07-30 13:01:00,91.0,31.4,29.99,SW,225,0.0,0.0,12,0.00,,---,99.99,VWS V15.00,2016-07-30 17:01:00,
2016-07-30 13:06:00,90.7,31.2,29.99,South,180,0.0,0.0,12,0.00,,---,99.99,VWS V15.00,2016-07-30 17:06:00,
2016-07-30 13:11:00,90.7,31.2,29.99,South,180,0.0,0.0,12,0.00,,---,99.99,VWS V15.00,2016-07-30 17:11:00,
2016-07-30 13:16:00,85.5,29.1,29.99,WSW,248,2.0,2.0,13,0.00,,---,99.99,VWS V15.00,2016-07-30 17:16:00,
2016-07-30 13:21:00,85.5,29.1,29.99,WSW,248,2.0,2.0,13,0.00,,---,99.99,VWS V15.00,2016-07-30 17:21:00,
2016-07-30 13:26:00,87.8,30.9,29.99,SSW,202,2.5,2.5,13,0.00,,---,99.99,VWS V15.00,2016-07-30 17:26:00,
2016-07-30 13:31:00,88.5,31.5,29.99,South,180,1.6,1.6,13,0.00,,---,99.99,VWS V15.00,2016-07-30 17:31:00,
2016-07-30 13:36:00,90.7,31.2,29.99,SSW,202,2.0,2.9,12,0.00,,---,99.99,VWS V15.00,2016-07-30 17:36:00,
2016-07-30 13:41:00,90.7,31.2,29.99,SSW,202,2.0,2.9,12,0.00,,---,99.99,VWS V15.00,2016-07-30 17:41:00,
2016-07-30 13:46:00,90.7,31.2,29.99,SSW,202,2.0,2.9,12,0.00,,---,99.99,VWS V15.00,2016-07-30 17:46:00,
2016-07-30 13:51:00,90.7,31.2,29.99,SSW,202,2.0,2.9,12,0.00,,---,99.99,VWS V15.00,2016-07-30 17:51:00,
2016-07-30 13:56:00,90.7,31.2,29.99,SSW,202,2.5,2.5,12,0.00,,---,99.99,VWS V15.00,2016-07-30 17:56:00,
2016-07-30 14:01:00,90.7,31.2,29.99,SSW,202,2.9,2.9,12,0.00,,---,99.99,VWS V15.00,2016-07-30 18:01:00,
2016-07-30 14:06:00,90.7,31.2,29.99,SSW,202,2.9,2.9,12,0.00,,---,99.99,VWS V15.00,2016-07-30 18:06:00,
2016-07-30 14:11:00,93.4,31.1,29.99,SSW,202,2.9,2.9,11,0.00,,---,99.99,VWS V15.00,2016-07-30 18:11:00,
2016-07-30 14:16:00,93.4,31.1,29.99,WNW,292,1.3,3.4,11,0.00,,---,99.99,VWS V15.00,2016-07-30 18:16:00,
2016-07-30 14:21:00,94.5,31.9,29.99,NW,315,1.6,2.7,11,0.00,,---,99.99,VWS V15.00,2016-07-30 18:21:00,
2016-07-30 14:26:00,94.5,31.9,29.99,NW,315,1.6,2.7,11,0.00,,---,99.99,VWS V15.00,2016-07-30 18:26:00,
2016-07-30 14:31:00,94.5,31.9,29.99,NW,315,1.6,2.7,11,0.00,,---,99.99,VWS V15.00,2016-07-30 18:31:00,
2016-07-30 14:36:00,94.5,31.9,29.99,NW,315,1.6,2.7,11,0.00,,---,99.99,VWS V15.00,2016-07-30 18:36:00,
2016-07-30 14:41:00,94.5,31.9,29.99,NW,315,1.6,2.7,11,0.00,,---,99.99,VWS V15.00,2016-07-30 18:41:00,
2016-07-30 14:45:00,94.5,31.9,29.99,NW,315,1.6,2.7,11,0.00,,---,99.99,VWS V15.00,2016-07-30 18:45:00,
2016-07-30 14:46:00,94.5,31.9,29.99,NW,315,1.6,2.7,11,0.00,,---,99.99,VWS V15.00,2016-07-30 18:46:00,
2016-07-30 14:51:00,94.5,31.9,29.99,NW,315,1.6,2.7,11,0.00,,---,99.99,VWS V15.00,2016-07-30 18:51:00,
2016-07-30 14:57:00,94.5,31.9,29.99,ESE,112,2.9,2.9,11,0.00,,---,0.00,VWS V15.00,2016-07-30 18:57:00,
2016-07-30 15:02:00,94.5,31.9,29.99,ESE,112,2.9,2.9,11,0.00,,---,99.99,VWS V15.00,2016-07-30 19:02:00,
2016-07-30 15:07:00,94.5,31.9,29.99,ESE,112,2.9,2.9,11,0.00,,---,99.99,VWS V15.00,2016-07-30 19:07:00,
2016-07-30 15:12:00,95.0,32.3,29.99,SSW,202,3.8,3.8,11,0.00,,---,99.99,VWS V15.00,2016-07-30 19:12:00,
2016-07-30 15:17:00,95.0,32.3,29.99,SSW,202,3.8,3.8,11,0.00,,---,99.99,VWS V15.00,2016-07-30 19:17:00,
2016-07-30 15:22:00,95.0,32.3,29.99,WSW,248,3.8,3.8,11,0.00,,---,99.99,VWS V15.00,2016-07-30 19:22:00,
2016-07-30 15:27:00,95.5,32.7,29.99,SW,225,5.8,5.8,11,0.00,,---,99.99,VWS V15.00,2016-07-30 19:27:00,
2016-07-30 15:32:00,96.1,33.2,29.96,South,180,3.6,3.8,11,0.00,,---,99.99,VWS V15.00,2016-07-30 19:32:00,
2016-07-30 15:37:00,96.1,33.2,29.96,South,180,3.6,3.8,11,0.00,,---,99.99,VWS V15.00,2016-07-30 19:37:00,
2016-07-30 15:42:00,96.1,33.2,29.96,SSW,202,7.6,7.6,11,0.00,,---,99.99,VWS V15.00,2016-07-30 19:42:00,
2016-07-30 15:47:00,94.3,31.8,29.96,SE,135,0.0,0.0,11,0.00,,---,99.99,VWS V15.00,2016-07-30 19:47:00,
2016-07-30 15:52:00,94.3,31.8,29.96,SW,225,2.5,2.5,11,0.00,,---,99.99,VWS V15.00,2016-07-30 19:52:00,
2016-07-30 15:57:00,93.4,31.1,29.96,SSW,202,3.1,3.1,11,0.00,,---,99.99,VWS V15.00,2016-07-30 19:57:00,
2016-07-30 16:02:00,95.4,32.6,29.96,WSW,248,1.6,3.1,11,0.00,,---,99.99,VWS V15.00,2016-07-30 20:02:00,
2016-07-30 16:07:00,93.0,33.0,29.96,SW,225,2.7,2.7,12,0.00,,---,99.99,VWS V15.00,2016-07-30 20:07:00,
2016-07-30 16:12:00,93.0,33.0,29.96,SW,225,2.7,2.7,12,0.00,,---,99.99,VWS V15.00,2016-07-30 20:12:00,
2016-07-30 16:17:00,93.0,33.0,29.96,SW,225,2.7,2.7,12,0.00,,---,99.99,VWS V15.00,2016-07-30 20:17:00,
2016-07-30 16:22:00,93.0,33.0,29.96,SW,225,2.7,2.7,12,0.00,,---,99.99,VWS V15.00,2016-07-30 20:22:00,
2016-07-30 16:27:00,93.0,33.0,29.96,SW,225,2.7,2.7,12,0.00,,---,99.99,VWS V15.00,2016-07-30 20:27:00,
2016-07-30 16:32:00,93.0,33.0,29.96,SW,225,2.7,2.7,12,0.00,,---,99.99,VWS V15.00,2016-07-30 20:32:00,
2016-07-30 16:37:00,93.0,33.0,29.96,WSW,248,3.8,3.8,12,0.00,,---,99.99,VWS V15.00,2016-07-30 20:37:00,